Location: Croisilles
(50.1998°N, 2.8793°E)
Time: 13:12:03
(UTC+00:00)

CZ-4C R/B - Pass Details

Date: 21 January 2021
Orbit: 617 x 1385 km, 63.4° (Epoch: 26 February)

Event Time Altitude Azimuth Distance (km) Brightness Sun altitude
Rises 19:30:54 0° 290° (WNW) 3,364 6.4 -29.5°
Reaches altitude 10° 19:33:38 10° 304° (NW) 2,550 5.4 -29.9°
Maximum altitude 19:38:34 26° 359° (N) 1,875 4.0 -30.7°
Enters shadow 19:39:08 25° 7° (N) 1,907 3.9 -30.8°
